Regional Weather Roundup
Issued by NWS

Home | Current Version | Previous Version | Graphics & Text | Print | Product List | Glossary On
Versions: 1 2 3 4 5 6 7 8 9 10 11 12 13 14 15 16 17 18 19 20 21 22 23 24 25 26 27 28 29 30 31 32 33 34 35 36 37 38 39 40 41 42 43 44 45 46 47 48 49
000
ASUS43 KDMX 292007
RWRIA

WEATHER ROUNDUP FOR IOWA
NATIONAL WEATHER SERVICE DES MOINES IA
300 PM CDT MON JUN 29 2015

NOTE: "FAIR" INDICATES FEW OR NO CLOUDS BELOW 12,000 FEET WITH NO
SIGNIFICANT WEATHER AND/OR OBSTRUCTIONS TO VISIBILITY.

* - THESE STATIONS ARE NOT NWS STATIONS...THUS NOT UNDER NWS
QUALITY CONTROL.  THEY ALSO DO NOT REPORT WEATHER SUCH
AS PRECIPITATION OR FOG.

IAZ001>003-012>014-020>022-031>034-043>046-292100-
   NORTHWEST IOWA

CITY           SKY/WX    TMP DP  RH WIND       PRES   REMARKS
CARROLL *      MOSUNNY   81  63  54 N9G15     29.91F HX  82
CHEROKEE *     MOSUNNY   79  61  53 NW9       29.92S HX  80
DENISON *      SUNNY     79  63  57 NW7G14    29.91F HX  80
LE MARS *      SUNNY     82  63  51 NW9       29.94S HX  83
ORANGE CITY *  MOSUNNY   79  63  57 NW10      29.93F HX  80
SHELDON *      MOSUNNY   82  63  51 W13       29.91F HX  83
SIOUX CITY     MOSUNNY   85  61  44 NW10      29.93S HX  85
SPENCER        MOSUNNY   82  60  47 NW13      29.91F HX  82
STORM LAKE *   SUNNY     79  59  50 NW10G16   29.94S HX  80
$$

IAZ055>058-069>071-079>083-090>094-292100-
   SOUTHWEST IOWA

CITY           SKY/WX    TMP DP  RH WIND       PRES   REMARKS
ATLANTIC *     SUNNY     81  63  54 NW12      29.92F HX  82
AUDUBON *      MOSUNNY   82  64  54 NW9       29.94S HX  84
CLARINDA *     MOSUNNY   84  68  58 NW9G17    29.93F HX  87
COUNCIL BLFS * MOSUNNY   84  64  51 NW10      29.94F HX  86
CRESTON *      MOSUNNY   81  61  50 N13G18    29.92F HX  81
HARLAN  *      MOSUNNY   81  64  57 NW14      29.96F HX  82
LAMONI         MOSUNNY   83  63  50 N9        29.91S HX  84
RED OAK *      MOSUNNY   84  64  51 N10G18    29.93S HX  86
SHENANDOAH *   MOSUNNY   84  61  45 NW10      29.93F HX  84
$$

IAZ047>049-059>061-072>074-084-292100-
   CENTRAL IOWA

CITY           SKY/WX    TMP DP  RH WIND       PRES   REMARKS
AMES           SUNNY     80  62  54 NW13      29.88F HX  81
ANKENY *       MOSUNNY   81  64  57 NW12      29.88S HX  82
CHARITON *     SUNNY     81  64  57 NW10      29.89F HX  82
DES MOINES     CLOUDY    82  61  48 N13       29.88F HX  83
GRINNELL*      PTSUNNY   79  66  65 W10       29.87F HX  81
KNOXVILLE *    MOSUNNY   79  64  61 NW10      29.87F HX  81
MARSHALLTOWN   MOSUNNY   79  65  62 NW12      29.85F HX  81
PELLA *        MOSUNNY   82  68  61 NW9       29.88F HX  85
PERRY *          N/A     81  63  54 NW10      29.90F HX  82
$$

IAZ004>006-015-016-023>025-035-036-292100-
   NORTH CENTRAL IOWA

CITY           SKY/WX    TMP DP  RH WIND       PRES   REMARKS
ALGONA *       MOSUNNY   81  63  54 NW12      29.89S HX  82
CLARION *      MOSUNNY   81  61  50 NW14      29.87F HX  81
ESTHERVILLE    SUNNY     79  61  53 NW13      29.89F HX  80
FORT DODGE *   MOSUNNY   79  64  61 NW9       29.90F HX  81
MASON CITY     SUNNY     81  63  54 NW10      29.87F HX  82
FOREST CITY *  MOSUNNY   79  61  53 NW10      29.86F HX  80
IOWA FALLS *   PTSUNNY   81  63  54 NW12G17   29.88F HX  82
$$

IAZ007>011-017>019-026>030-037>042-050>054-066-292100-
   NORTHEAST IOWA

CITY           SKY/WX    TMP DP  RH WIND       PRES   REMARKS
CEDAR RAPIDS   MOSUNNY   79  65  62 NW8       29.83F HX  81
CHARLES CITY * PTSUNNY   81  66  61 W13       29.84F HX  83
CLINTON *      PTSUNNY   77  64  65 W14       29.85F
DECORAH *        N/A    N/A N/A N/A MISG        N/A
DUBUQUE        MOSUNNY   78  63  59 NW8       29.82F HX  80
MONTICELLO *   PTSUNNY   79 -31   1 W12       29.82F
OELWEIN *      MOSUNNY   81  64  57 NW12      29.83F HX  82
WATERLOO       MOSUNNY   82  63  52 NW10      29.82F HX  83
$$

IAZ064-065-067-068-078-292100-
   EAST CENTRAL IOWA

CITY           SKY/WX    TMP DP  RH WIND       PRES   REMARKS
DAVENPORT      MOSUNNY   76  65  68 W8        29.84F
IOWA CITY      MOSUNNY   81  64  56 N5        29.84F HX  82
MT. PLEASANT * PTSUNNY   81  61  50 N7        29.85F HX  81
MUSCATINE *    MOSUNNY   81  64  57 W9G17     29.83F HX  82
QUAD CITIES    SUNNY     77  64  64 W7        29.83F
$$

IAZ062-063-075>077-085>089-095>099-292100-
   SOUTHEAST IOWA

CITY           SKY/WX    TMP DP  RH WIND       PRES   REMARKS
BURLINGTON     MOSUNNY   79  67  66 NW5       29.85F HX  81
FAIRFIELD *    MOSUNNY   81  66  61 NW14      29.86S HX  83
FORT MADISON * MOSUNNY   81  66  61 W8        29.86F HX  83
KEOKUK *       PTSUNNY   79  66  65 CALM      29.85F HX  81
OSKALOOSA *      N/A     81  66  61 NW12      29.87F HX  83
CENTERVILLE *  SUNNY     81  64  57 NW9       29.90F HX  82
OTTUMWA        MOSUNNY   81  68  64 NW13      29.85S HX  84
WASHINGTON *   MOSUNNY   81  66  61 NW12      29.86F HX  83
$$

ABBREVIATIONS USED IN REMARKS
   TC - TEMPERATURES IN CELSIUS
  WCI - WIND CHILL INDEX
   HX - HEAT INDEX
  VSB - VISIBILITY
$$



USA.gov is the U.S. government's official web portal to all federal, state and local government web resources and services.